Wind_Speed
2 3 4 6 7 8 10 11 12 14 14 15 16 17 18 19 19 20 20 21 21 22 22 22 23 23 23 23 23 23 24 24 25 26 27 27 27 27 27 28 28 29 28
5 6 7 9 10 11 13 14 15 16 17 18 19 19 20 21 22 22 23 23 23 24 24 25 25 26 26 27 27 27 27 27 28 29 30 30 31 31 31 31 32 32 32
8 9 10 12 13 14 15 17 18 18 19 20 20 21 22 22 23 24 24 25 25 26 27 27 28 28 29 29 30 30 30 30 31 32 33 33 34 34 35 35 36 36 36
11 12 13 14 15 16 17 18 19 20 21 21 22 23 23 24 25 25 26 26 27 28 28 29 30 31 31 32 33 33 33 34 35 35 36 37 38 38 38 39 39 40 40
13 14 15 16 17 18 19 19 20 21 22 23 24 24 25 25 26 26 27 28 28 29 30 31 32 33 34 35 35 36 37 37 38 39 40 41 42 42 43 43 43 44 45
14 15 16 17 18 19 20 21 22 23 23 24 25 26 26 27 27 28 29 30 31 32 33 34 35 36 37 38 39 40 40 41 42 43 44 45 46 47 48 48 49 49 49
15 16 17 18 19 20 21 22 23 24 24 25 26 27 27 28 29 30 31 32 33 34 35 36 37 39 40 41 42 43 44 44 45 46 48 49 50 51 53 54 54 55 55
16 17 18 19 20 21 22 23 24 24 25 26 27 28 29 30 31 32 33 34 35 36 37 38 39 41 42 44 45 46 47 49 50 51 52 53 55 56 57 58 60 60 61
17 18 19 20 21 21 22 23 24 25 26 27 28 29 30 31 32 33 34 35 36 38 39 40 42 43 45 46 48 49 51 53 54 56 57 59 60 62 63 64 65 66 67
17 18 19 20 21 22 23 24 25 25 26 27 28 29 30 31 32 33 35 36 38 39 41 42 44 45 47 49 51 53 54 56 58 60 62 64 66 68 70 72 73 73 74
17 18 19 20 21 22 23 24 24 25 26 27 28 29 30 31 32 34 36 38 39 41 42 44 46 47 49 51 53 55 57 59 62 64 66 69 71 74 77 79 80 81 82
17 18 19 20 21 22 22 23 24 25 26 27 28 29 31 32 34 35 37 39 40 42 44 45 47 49 51 53 55 58 60 62 64 67 71 74 76 80 83 86 88 90 92
17 18 18 19 20 21 22 23 25 26 27 28 30 31 32 34 35 37 38 40 42 43 45 47 49 50 53 55 57 60 62 65 67 71 74 78 81 85 88 91 95 98 101
17 17 18 19 20 22 23 24 26 27 29 30 31 33 34 35 37 38 40 42 43 45 47 48 50 52 55 57 59 62 65 67 71 75 78 82 86 89 93 97 101 105 108
16 17 18 20 21 23 24 26 27 29 30 32 33 34 36 37 38 40 41 43 45 47 48 50 52 54 57 59 62 64 67 70 74 78 82 86 90 94 98 101 102 104 105
17 18 19 21 22 24 25 27 29 30 32 33 35 36 38 39 41 42 43 45 47 48 50 52 54 56 59 61 64 67 70 74 78 82 86 90 94 97 99 98 96 95 95
18 19 20 21 23 24 26 28 30 32 33 35 36 38 39 41 42 44 45 46 48 50 52 54 56 58 61 63 66 69 73 76 81 85 89 92 94 95 95 93 90 89 89
19 20 21 22 23 25 26 28 30 33 35 36 38 39 41 42 44 45 47 48 50 52 54 56 58 61 63 65 68 71 75 79 84 87 89 91 92 92 90 89 87 86 85
20 22 23 24 25 26 27 29 31 34 36 38 39 41 42 43 45 47 48 50 52 54 56 58 60 63 65 67 70 73 77 81 85 87 88 89 90 89 87 86 84 81 79
22 24 25 26 27 28 30 31 33 36 38 40 41 43 44 45 47 48 50 51 53 56 59 61 63 65 67 69 72 75 79 82 85 85 87 87 86 85 84 82 79 76 73
25 26 27 28 29 31 32 34 36 38 40 42 44 45 47 48 49 50 51 53 55 58 61 63 65 67 70 72 74 76 78 81 82 82 83 82 81 81 80 77 74 71 68
28 29 30 31 32 34 35 37 38 40 42 44 46 47 49 50 51 52 54 56 58 60 63 65 67 70 72 75 77 79 80 79 80 79 78 78 77 77 75 73 70 66 63
30 32 33 34 35 37 38 39 41 43 45 47 48 50 51 52 53 54 56 58 60 62 65 67 70 72 74 77 80 82 83 82 81 76 73 72 72 72 71 69 65 61 58
33 34 36 37 38 40 41 42 44 46 47 49 51 52 53 54 56 57 58 60 62 65 67 69 72 74 76 78 80 82 83 84 84 79 71 68 68 67 67 65 62 58 54
36 37 39 40 41 43 44 46 47 49 50 52 53 55 55 56 58 59 60 62 64 67 69 71 73 75 77 78 80 81 81 81 82 80 74 67 63 63 63 61 59 55 51
39 41 42 44 45 46 48 49 50 52 53 54 55 57 57 58 59 61 62 64 66 68 70 72 74 76 78 79 80 80 80 79 78 77 74 69 63 58 58 57 56 53 49
Wind_Direction
0 340 330 326 322 319 316 315 313 311 309 308 306 305 304 303 302 301 300 299 297 296 294 293 291 290 287 285 283 281 279 278 277 276 275 273 271 270 269 269 267 265 262
341 331 325 321 319 317 315 313 311 309 308 306 305 304 304 303 302 301 300 298 297 296 295 293 292 291 289 288 286 284 282 280 277 276 275 273 271 269 268 267 267 266 264
326 321 318 317 316 315 312 310 308 307 305 304 304 303 302 301 300 299 298 297 296 295 294 293 292 291 290 289 288 286 284 282 280 279 277 276 274 271 268 266 266 265 264
318 316 315 313 312 310 308 307 306 305 304 303 303 303 302 301 299 298 297 296 295 294 293 292 291 290 289 289 288 287 285 284 282 281 279 278 276 274 271 268 265 264 263
313 312 310 308 307 307 306 305 305 304 304 304 304 303 302 301 300 298 297 296 295 293 292 291 290 289 288 287 286 285 284 283 282 281 280 278 277 276 274 271 268 265 263
308 306 305 305 305 305 305 305 304 304 305 305 304 304 303 302 301 300 299 297 295 294 292 291 290 289 288 287 286 285 283 282 281 280 279 278 276 275 274 273 271 267 264
304 304 304 304 305 305 305 305 305 305 306 306 305 305 304 304 303 302 300 299 297 295 294 292 290 289 287 286 285 284 283 282 280 279 278 277 276 275 274 273 271 268 266
302 303 303 304 305 305 306 306 306 307 307 307 307 307 306 305 305 303 302 300 299 297 295 293 291 290 288 287 285 284 283 281 280 279 278 277 275 274 273 272 271 269 266
302 303 304 305 306 307 307 308 308 309 309 309 308 308 308 307 307 306 305 303 301 300 298 297 295 293 291 289 288 286 285 283 281 280 278 277 275 273 272 270 269 268 265
304 305 306 308 309 309 310 311 311 311 311 311 311 311 311 310 310 309 308 307 306 304 303 301 299 297 295 293 291 289 288 286 284 283 281 279 278 276 273 271 269 267 265
306 307 309 310 312 312 313 314 314 315 315 315 315 315 315 314 314 313 312 311 309 308 306 305 303 301 298 296 294 293 291 289 287 286 285 283 282 280 278 276 273 269 266
310 311 313 314 315 316 316 317 318 318 319 318 318 317 317 316 316 315 314 313 312 311 309 307 305 303 301 299 297 296 294 292 291 290 289 288 286 284 283 280 277 274 270
314 316 318 318 319 319 320 320 321 320 320 319 318 318 317 317 316 316 315 314 313 312 311 310 308 306 304 302 301 299 298 296 295 294 293 291 290 289 287 284 281 278 274
318 319 320 321 322 322 322 322 321 320 319 318 317 317 316 316 316 315 315 315 314 313 313 311 310 308 306 305 304 302 301 300 299 298 297 295 294 292 289 286 283 280 276
320 321 322 323 323 322 322 321 320 319 317 316 316 315 315 315 314 315 315 315 314 314 313 313 311 310 309 308 307 305 304 303 303 302 301 299 297 295 292 289 285 281 277
319 320 321 322 323 323 323 323 321 320 318 317 316 315 314 314 314 314 314 315 315 315 315 314 313 311 311 310 309 308 307 306 305 304 303 302 300 297 295 291 287 283 277
318 319 320 321 323 324 326 325 324 322 321 319 318 317 315 315 314 314 314 315 315 316 316 315 314 313 312 312 312 311 310 309 308 307 306 304 302 300 297 293 289 284 278
314 315 317 319 322 324 325 326 325 325 323 322 320 319 317 316 316 315 314 315 316 317 317 317 316 315 314 314 314 314 313 312 311 310 308 307 304 301 298 295 291 286 281
310 311 313 315 317 320 322 323 324 325 325 324 322 321 319 318 317 316 315 315 316 317 317 318 318 317 316 316 316 316 315 314 313 312 311 309 306 304 301 298 294 290 284
307 308 310 312 314 316 318 320 321 322 323 323 323 322 321 319 319 318 317 316 317 318 318 319 320 319 318 319 319 318 318 317 316 315 313 311 308 306 304 301 297 293 288
304 306 308 310 312 314 315 317 318 319 320 321 322 322 322 320 319 319 318 318 318 319 320 321 321 321 321 321 320 320 320 319 318 316 314 312 310 308 306 304 301 297 291
302 304 306 308 310 312 313 315 316 317 318 319 320 320 321 320 320 320 319 319 320 321 321 322 323 323 323 322 322 322 322 321 320 319 317 314 312 311 309 307 305 301 295
301 303 305 307 308 309 311 313 314 315 316 317 318 319 319 320 319 319 320 320 321 322 323 323 324 324 324 324 324 323 323 323 323 323 320 317 314 313 311 310 307 304 300
300 302 303 305 307 308 309 311 312 313 314 315 316 317 318 318 319 319 320 321 322 323 324 324 324 325 325 325 324 324 324 324 324 325 324 321 318 316 314 312 310 308 304
299 300 302 303 305 306 308 309 310 312 313 314 315 316 316 317 318 319 319 321 322 324 324 325 325 325 325 325 325 325 325 324 324 325 327 325 322 319 317 315 312 311 309
297 299 300 302 303 304 306 307 309 310 311 313 313 315 316 316 317 318 319 320 322 324 325 325 325 325 326 326 326 326 325 325 325 325 326 327 327 324 320 317 314 313 312
Height
5869 5869 5868 5868 5868 5867 5867 5867 5866 5866 5865 5865 5864 5863 5863 5862 5861 5861 5860 5860 5859 5859 5858 5858 5858 5858 5858 5858 5859 5860 5860 5860 5860 5860 5861 5862 5864 5865 5866 5867 5869 5870 5872
5868 5868 5867 5866 5866 5865 5865 5864 5864 5863 5862 5862 5861 5860 5859 5859 5858 5857 5856 5856 5855 5854 5854 5853 5853 5853 5853 5853 5853 5854 5854 5855 5854 5854 5855 5856 5857 5859 5860 5861 5863 5864 5866
5867 5866 5865 5864 5864 5863 5862 5862 5861 5860 5859 5858 5858 5857 5856 5855 5854 5853 5852 5851 5851 5850 5849 5848 5848 5847 5847 5847 5847 5847 5848 5848 5848 5848 5848 5849 5850 5852 5853 5855 5856 5857 5859
5865 5864 5863 5862 5862 5861 5860 5859 5858 5857 5856 5855 5854 5853 5852 5851 5850 5849 5848 5847 5846 5845 5844 5843 5843 5842 5842 5841 5841 5841 5841 5841 5841 5841 5841 5842 5842 5843 5845 5847 5849 5850 5851
5863 5862 5861 5860 5859 5858 5857 5856 5855 5854 5852 5851 5850 5849 5847 5846 5845 5844 5843 5842 5841 5840 5839 5838 5837 5836 5835 5835 5834 5834 5834 5834 5833 5833 5833 5834 5834 5834 5836 5838 5840 5841 5843
5861 5860 5859 5857 5856 5855 5854 5852 5851 5850 5848 5847 5845 5844 5842 5841 5840 5838 5837 5836 5835 5834 5833 5832 5830 5829 5828 5827 5827 5826 5825 5825 5825 5824 5824 5824 5824 5825 5825 5827 5829 5831 5833
5858 5857 5856 5855 5853 5852 5850 5849 5847 5845 5844 5842 5840 5839 5837 5835 5834 5832 5831 5829 5828 5827 5825 5824 5823 5821 5820 5819 5818 5817 5816 5815 5815 5815 5814 5814 5814 5814 5814 5815 5817 5819 5821
5856 5855 5853 5852 5850 5848 5847 5845 5843 5841 5839 5837 5835 5833 5831 5829 5828 5826 5824 5822 5820 5819 5817 5815 5814 5812 5810 5809 5808 5806 5805 5804 5803 5803 5802 5802 5802 5801 5801 5802 5803 5805 5807
5853 5852 5850 5848 5847 5845 5843 5841 5839 5837 5834 5832 5830 5828 5825 5823 5821 5818 5816 5814 5812 5810 5808 5806 5804 5802 5799 5798 5796 5794 5792 5791 5790 5789 5788 5787 5787 5786 5786 5787 5787 5789 5791
5850 5848 5847 5845 5843 5841 5839 5837 5834 5832 5829 5827 5824 5822 5819 5817 5814 5811 5809 5806 5803 5800 5798 5795 5792 5790 5787 5785 5782 5780 5778 5776 5774 5772 5771 5769 5768 5767 5767 5767 5768 5769 5772
5847 5845 5843 5841 5839 5837 5835 5832 5830 5827 5824 5822 5819 5816 5813 5810 5807 5804 5801 5797 5794 5791 5788 5784 5781 5778 5775 5771 5768 5765 5762 5759 5757 5754 5751 5749 5747 5745 5743 5743 5743 5744 5747
5844 5842 5840 5838 5836 5833 5831 5828 5825 5823 5820 5817 5814 5811 5807 5804 5800 5797 5793 5789 5786 5782 5778 5774 5770 5766 5762 5758 5754 5750 5746 5742 5739 5735 5731 5727 5724 5720 5717 5715 5714 5714 5716
5841 5839 5837 5834 5832 5830 5827 5824 5821 5818 5815 5812 5808 5805 5801 5797 5794 5790 5785 5781 5777 5773 5768 5763 5759 5754 5750 5745 5740 5735 5730 5725 5720 5715 5710 5704 5699 5694 5689 5685 5682 5681 5681
5838 5836 5833 5831 5829 5826 5823 5820 5817 5814 5810 5807 5803 5799 5795 5791 5787 5782 5778 5773 5768 5763 5758 5753 5748 5742 5737 5731 5725 5719 5713 5707 5701 5694 5687 5680 5673 5666 5660 5653 5648 5644 5641
5834 5832 5830 5827 5825 5822 5819 5815 5812 5809 5805 5801 5797 5793 5788 5784 5779 5774 5769 5764 5759 5754 5748 5742 5736 5730 5724 5717 5710 5704 5696 5688 5680 5672 5664 5654 5645 5636 5626 5618 5610 5603 5599
5831 5829 5826 5824 5821 5818 5814 5811 5807 5803 5799 5795 5790 5786 5781 5776 5771 5766 5761 5755 5750 5744 5738 5731 5725 5718 5711 5704 5696 5688 5679 5670 5660 5650 5639 5628 5616 5603 5591 5581 5572 5565 5560
5828 5826 5823 5820 5817 5813 5810 5806 5802 5798 5793 5788 5784 5779 5773 5768 5763 5757 5752 5746 5740 5734 5727 5720 5713 5706 5698 5690 5682 5672 5662 5651 5639 5627 5614 5600 5586 5572 5558 5547 5538 5531 5526
5824 5822 5819 5816 5813 5809 5805 5801 5797 5792 5787 5782 5777 5771 5766 5760 5754 5748 5742 5736 5730 5723 5716 5709 5701 5693 5685 5676 5667 5656 5644 5632 5618 5603 5588 5572 5556 5542 5529 5517 5506 5498 5492
5821 5818 5815 5812 5808 5804 5800 5796 5791 5786 5781 5775 5770 5764 5758 5752 5746 5739 5733 5726 5719 5712 5704 5696 5688 5679 5670 5661 5651 5639 5626 5612 5596 5580 5563 5546 5528 5513 5500 5488 5476 5467 5460
5817 5814 5811 5807 5803 5799 5794 5790 5785 5780 5774 5768 5762 5756 5750 5743 5736 5730 5723 5715 5708 5700 5692 5683 5674 5664 5655 5645 5635 5622 5608 5591 5573 5556 5538 5521 5503 5487 5473 5460 5449 5439 5431
5812 5809 5805 5801 5797 5793 5788 5783 5778 5773 5767 5761 5754 5748 5741 5734 5727 5720 5712 5704 5696 5688 5679 5670 5660 5649 5638 5627 5617 5606 5592 5574 5555 5536 5517 5499 5481 5465 5450 5436 5424 5414 5406
5807 5803 5799 5795 5790 5785 5781 5776 5771 5765 5759 5753 5746 5739 5732 5725 5717 5709 5701 5693 5684 5675 5665 5655 5645 5634 5621 5608 5597 5585 5574 5562 5542 5522 5500 5479 5461 5444 5429 5415 5402 5392 5383
5800 5797 5792 5788 5783 5778 5773 5768 5763 5757 5750 5744 5737 5730 5722 5715 5707 5698 5690 5681 5671 5662 5651 5640 5629 5618 5605 5590 5575 5561 5547 5535 5523 5510 5487 5465 5444 5427 5410 5396 5384 5374 5364
5793 5789 5785 5780 5775 5770 5764 5759 5753 5748 5741 5735 5728 5720 5712 5704 5696 5687 5678 5669 5659 5648 5637 5626 5614 5601 5588 5574 5558 5541 5524 5507 5493 5485 5473 5452 5431 5412 5394 5380 5368 5357 5348
5786 5782 5777 5772 5767 5761 5756 5750 5744 5738 5731 5725 5717 5709 5701 5693 5685 5676 5666 5656 5646 5635 5624 5611 5599 5585 5571 5557 5541 5525 5508 5490 5471 5456 5448 5437 5420 5399 5380 5365 5353 5343 5335
5777 5773 5768 5763 5758 5752 5746 5740 5734 5728 5721 5714 5706 5698 5690 5682 5673 5664 5654 5644 5633 5622 5610 5597 5584 5570 5556 5541 5525 5508 5491 5475 5458 5440 5426 5416 5404 5389 5370 5354 5340 5331 5323